DELTA 1 DEB, 10709

Orbit data source: Space-Track

DELTA 1 DEB, 10709 is space debris in SSO originally from a launch on Thu, 29 Jul 1976 UTC launched from the Air Force Western Test Range (AFWTR). Debris objects in space refer to the collection of defunct objects orbiting the Earth. Examples of debris include non-operational satellites, rocket bodies, and fragments generated from explosions, collisions, or faulty payload assembly.

Loading next visibility...
Identifier
10709, 1976-077AE
Orbit
SSO
Country
Flag of USUS
Related business
Manufacturer
Unknown
Mission
Spacecraft
Bus & Motor
Unknown
Mass
Unknown
Launch date (UTC)
1976-07-29 (50 years ago)
Launch vehicle
Unknown
Launch site
Air Force Western Test Range (AFWTR)
Object type
Payload
Rocket body
Debris
Shape & HBR
Unknown shape, 0.1 m
Radar Cross Section
Medium (>0.1 m² and <1 m²)

Expand to show TLE details & history
Last TLE update: 8 hours ago

TLE from 8 hours ago
0 DELTA 1 DEB
1 10709U 76077AE  26036.43411351  .00000198  00000-0  16684-2 0  9998
2 10709 101.9121 105.9208 0018561  69.0398 302.8930 12.46587853249611
Epoch: 2026-02-05T10:25Z
TLE epoch observation values (Epoch: 2026-02-05T10:25:07.407Z)
Latitude
11.4574°
Longitude
171.6151°
Altitude
1,472.71 km
Speed
7.131 km/s
True Right ascension
06h 53m 55s
True Declination
11° 23' 48"
Sunlit
Object was in full shadow at epoch
Visualization orbit readout
Latitude
Unknown
Longitude
Unknown
Altitude
Unknown
Speed
Unknown
Apparent Right ascension
Unknown
Apparent Declination
Unknown
Sunlit
N/A
Visualization observer readout
Local Sidereal Time
20:16:57
Azimuth
Unknown
Elevation
Unknown
Doppler factor
Unknown
Orbital elements
Apogee altitude
1,490.939 km
Perigee altitude
1,461.782 km
Semi-major axis
7,854.497 km
Eccentricity
0.00186
Inclination
101.9121°
RAAN
105.9208°
Arg. of periapsis
69.0398°
True anomaly
302.71418°
Mean anomaly
302.893°
Eccentric anomaly
302.80361°
Mean motion
3.11792 °/min
Orbital period
115.46 mins
BSTAR
0.0016684
Loading maneuver chart data...
Computing Atmospheric mass density...
Loading historical data...
Loading historical data...
Loading historical data...
Loading historical data...
Loading historical data...
Loading historical data...
Loading historical data...

Documentation

Showing up to 5 results
|